Location: *
(49.6619°S, 177.4603°W)
Time: 05:27:16
(UTC+00:00)

Cosmos 1844 - Pass Details

Date: 31 January 2023
Orbit: 822 x 868 km, 70.9° (Epoch: 01 April)

Event Time Altitude Azimuth Distance (km) Brightness Sun altitude
Exits shadow 10:41:13 10° 317° (NW) 2,447 5.9 -20.5°
Maximum altitude 10:46:46 60° 237° (WSW) 962 4.2 -20.8°
Drops below altitude 10° 10:52:22 10° 156° (SSE) 2,466 6.8 -21.1°
Sets 10:54:51 0° 152° (SSE) 3,401 7.5 -21.3°
